Overview Statistics Trail Chart Weather Telemetry Raw packets
 

This is the latest recevied weather packets stored in our database for station/object IN3MWE-10. If no packets are shown the sender has not sent any weather packets the latest 10 day(s).

<< 32 33 34 35 36 37 38 >>
Time Temp. Humidity Pressure Rain* Wind** Luminosity Snow
1787907017 31.11° C 56% 980.5 hPa - - - -
1787906117 28.89° C 62% 980.8 hPa - - - -
1787905217 30.56° C 59% 980.9 hPa - - - -
1787904316 29.44° C 64% 981.3 hPa - - - -
1787903416 27.78° C 69% 982.1 hPa - - - -
1787902516 25.56° C 84% 982.5 hPa - - - -
1787901616 24.44° C 92% 982.5 hPa - - - -
1787900716 23.33° C 100% 982.5 hPa - - - -
1787899816 22.78° C 100% 982.6 hPa - - - -
1787898916 22.22° C 100% 982.8 hPa - - - -
1787898015 22.22° C 100% 982.5 hPa - - - -
1787897115 21.67° C 100% 982.7 hPa - - - -
1787896215 21.11° C 100% 982.3 hPa - - - -
1787895315 21.11° C 100% 982.4 hPa - - - -
1787894415 21.67° C 100% 982.3 hPa - - - -
1787893515 21.67° C 100% 982.1 hPa - - - -
1787892615 21.11° C 100% 982.8 hPa - - - -
1787891715 21.67° C 100% 982.7 hPa - - - -
1787890814 21.11° C 100% 982.4 hPa - - - -
1787889914 21.11° C 100% 982.3 hPa - - - -
1787889014 21.11° C 100% 981.8 hPa - - - -
1787888114 21.11° C 100% 981.9 hPa - - - -
1787887214 21.11° C 100% 982.1 hPa - - - -
1787886313 21.11° C 100% 982.4 hPa - - - -
1787885427 21.11° C 100% 982.6 hPa - - - -

* Rain since midnight (hover to see other rain measurements)
** Current wind speed in m/s (hover to see current wind gust speed)